"Pseudo-MPEC" for P10L7nx

Created 2019 Jan 17 18:18:09 UT using Find_Orb

Click here for an explanation of pseudo-MPECs

 
 Astrometry: 
     P10L7nx  C2018 12 16?8RLY2wlxpAstrometry(vq.%uo#FZjiu*9Gs$D6C7hppGR=DOhSF51
     P10L7nx  C2018 12 1688q3vd4oiX_2oM\?'][ZTcC3K3oO[wAMH.I3B?VUXBJ,YDg%!q_:F51
     P10L7nx  C2018 12 16r;iu#m.Ff!D`%PsIr6)MaBlUI6\D/S=$Bl(5(!r)F2bP,fBoP]kvF51
     P10L7nx  C2019 01 07'VT$H6mIN!o`=yl)VhR,KD(=^nlwiM-CQ/3EeQH9,qJpl-[`2`*nF51
     P10L7nx  C2019 01 07w'))7=(VHPp/Gp3q@xwd8d3-Of'5=bsSj(0lredacted;X!YPhQlF51
     P10L7nx  C2019 01 07TZx;0By5^r68bUQ(0dXy;JbxnQFP+(jFBj6[bLM%jO4u1D`iCUm_F51
     P10L7nx  C2019 01 07)wq)s;?T#k'\60p1A;qd8'Xx[Ni[Ne;Wbfa6'D_rLAb\8sX-EByLF51
     P10L7nx  C2019 01 08.37715 09 00 24.62 -10 08 17.6    ~18AI 20.4 GVNEOCPI52
     P10L7nx  C2019 01 08.37881 09 00 24.52 -10 08 19.5    ~18AI 20.2 GVNEOCPI52
     P10L7nx  C2019 01 08.38332 09 00 24.23 -10 08 23.5    ~18AI 20.4 GVNEOCPI52
     P10L7nx  C2019 01 08.38782 09 00 23.93 -10 08 27.6    ~18AI 20.2 GVNEOCPI52
     P10L7nx 1C2019 01 08W`7h$O8+0]D(cfjyX=W?brhTJO7DqH*c6-gfELP\q2E7VEIsVB6VQ62
     P10L7nx 1C2019 01 08/YJmB`/\V\-h\xD[Gr7C.n]fYt[eT_XvEY`3v\o)%+'#f(u$K)LbQ62
     P10L7nx ^C2019 01 08.64664609 00 07.500-10 12 31.90   ~18II 20.52GVNEOCP568
     P10L7nx ^C2019 01 08.64782609 00 07.422-10 12 33.04   ~18II 20.47GVNEOCP568
     P10L7nx 1C2019 01 08RYbO$A5^.1uWncO#O1y-6\Yx,c+8l]qT2PO!4]clickfco4cX=A-Q62
     P10L7nx ^C2019 01 08.64900809 00 07.345-10 12 34.17   ~18II 20.46GVNEOCP568
     P10L7nx  C2019 01 09.37932 08 59 21.65 -10 23 58.7    ~19AI 19.9 GVNEOCPI52
     P10L7nx  C2019 01 09.38098 08 59 21.44 -10 24 01.2    ~19AI 20.8 GVNEOCPI52
     P10L7nx  C2019 01 09.38464 08 59 21.25 -10 24 04.9    ~19AI 20.7 GVNEOCPI52
     P10L7nx  C2019 01 09.38829 08 59 20.99 -10 24 07.9    ~19AI 20.1 GVNEOCPI52
     P10L7nx  C2019 01 11==mZH+L_W[L-dMun_q(OC6Nq+m(Z0E'jGfp,w+X^p`ZrTsi6OrjM691
     P10L7nx  C2019 01 11(PK/@LOjYMvk1lQE_r-PH%@ug9?5%F=UKOx0@W]pHHTnZmfgC4Fc691
     P10L7nx  C2019 01 11tFTUvRepcH@fp\tg+)es))]J:t'Q#x1WNBD[DdG:Fu3cE(k(1(R%691
     P10L7nx  C2019 01 12.47660 08 55 59.75 -11 10 11.1    ~1CCI 21.3 GVNEOCPI52
     P10L7nx  C2019 01 12.47957 08 55 59.46 -11 10 14.3    ~1CCI 20.3 GVNEOCPI52
     P10L7nx  C2019 01 12.48384 08 55 59.12 -11 10 18.9    ~1CCI 20.7 GVNEOCPI52
     P10L7nx  C2019 01 12.48681 08 55 58.98 -11 10 21.0    ~1CCI 20.4 GVNEOCPI52
     P10L7nx KC2019 01 15EG]ci[D3yF'EA:herea^2`fXBQ:NW=bhPxwuE4^ho]Un]7mX+.=rL01
     P10L7nx KC2019 01 15ra[B83?33-L!/1JlHq$S%A%'YUKwV;XxSF=AYJm4VE*G!UZZa[6fL01
     P10L7nx pC2019 01 15k9BbZ!fM5F)5P+\Q17egrbl9R/`7+QP'm0(Y7r%t-/YC:k[%2-_5L01
     P10L7nx 9C2019 01 158@C(4S0GE\M?i6y3QDH0VUpk$!t%/q=):E=H/emll25(e3/$D@Y:G40
     P10L7nx 9C2019 01 15n4OxNNov]ZC)0?cuuv_@%3Z6KPvgbD!7B*elZ$,-4%pcTFHTAMBUG40
     P10L7nx KC2019 01 1586^5@I'T-XforfnFEdye2.,:P;2CGZ#:LmSa3VBh\*Hx!mqeG\QUL27
     P10L7nx KC2019 01 16^k_SrS,3@bVby:=G8o/]pEhKAhdYSlqy+Jq80*Ys:urT8sG0B0m8L27
     P10L7nx KC2019 01 16d1M60Y`'qq2*Dp[C(Of8vXHfvTDWrV+.@IHit4t:ThOr1W!QpR0rL27
     P10L7nx KC2019 01 17MH-mfVoVP)*Hx^6M0+2SUc'6I.Sg-inN0KC@U'JX%bnRrJ7^$FA(291
     P10L7nx KC2019 01 17'UkUepx+%/^^q,kDW(([)_V1R!!RgxYCi4b:gn@FW$_)0PMg2/oH291
     P10L7nx KC2019 01 17YfEIU-cvU)v3a[q1C_xR;mUexplanationtN///ei)0l8q/4'l0n291

Station data:
(291) LPL/Spacewatch II  (N31.961669 W111.599905)  US/Arizona.  Observers J.
   V. Scotti, R. S. McMillan. 1.8-m f/2.7 reflector + CCD.
(568) Mauna Kea  (N19.826116 W155.472200)  US/Hawaii.
(691) Steward Observatory, Kitt Peak - Spacewatch  (N31.962174 W111.600327)
   US/Arizona.  Observer J. V. Scotti. 0.9-m f/3 reflector + CCD.
(F51) Pan-STARRS 1, Haleakala  (N20.707235 W156.255910)  US/Hawaii.
   Observers N. Primak, A. Schultz, S. Watters, J. Thiel, T. Goggia. Measurer
   PS1 Science Consortium. 1.8-m Ritchey-Chrétien + CCD.
(G40) Slooh.com Canary Islands Observatory  (N28.299720 W16.508260)  Canary
   Islands (Spain).  Observers G. Gašparović, Y. Chen. 0.43-m f/6.8 Corrected
   Dall-Kirkham + CCD.
(I52) Steward Observatory, Mt. Lemmon Station  (N32.442547 W110.788920)
   US/Arizona.  Observers B. M. Africano, E. J. Christensen, G. A. Farneth,
   D. C. Fuls, A. R. Gibbs, A. D. Grauer, H. Groeller, J. A. Johnson, R. A.
   Kowalski, S. M. Larson, G. J. Leonard, R. L. Seaman, F. C. Shelly. 1.0-m
   reflector + CCD.
(L01) Višnjan Observatory, Tičan  (N45.290900 E13.749300)  Croatia.
   Observers K. Korlević, E. Pettarin. Measurer E. Pettarin. 1.0-m f/2.9
   reflector + CCD.
(L27) 29PREMOTE Observatory, Dauban  (N43.999847 E5.647040)  France.
(Q62) iTelescope Observatory, Siding Spring  (S31.273289 E149.064420)
   Australia/NSW. 0.50-m f/6.8 astrograph + CCD + focal reducer, 0.70-m f/6.6
   astrograph + CCD.

Orbital elements:  P10L7nx
   Perihelion 2018 Aug 29.316155 +/- 0.00578 TT =  7:35:15 (JD 2458359.816155)
Epoch 2019 Jan 17.0 TT = JDT 2458500.5   Earth MOID: 0.9825   AutoNEOCP
M  11.13572704 +/- 0.009            (J2000 ecliptic)
n   0.07915427 +/- 6.38e-5          Peri.  156.29584 +/- 0.0029
a   5.37221209 +/- 0.00288          Node   280.26303 +/- 0.0035
e   0.6392498 +/- 0.000192          Incl.   33.21951 +/- 0.0035
P  12.45                   H 17.2   G  0.15   U  6.3  
q 1.93802641 +/- 0.000152    Q 8.80639777 +/- 0.00575
From 39 observations 2018 Dec. 16-2019 Jan. 17; mean residual 0".41
Residuals in arcseconds: 
181216 F51  .12+  .08-    190108 568  .03-  .25-    190112 I52  .81-  .30-    
181216 F51  .16-  .11+    190108 568  .06-  .28-    190112 I52  .12+  .14+    
181216 F51  .04+  .05+    190108 Q62  .16+  .26-    190115 L01  .29-  .05-    
190107 F51  .18-  .30-    190108 568  .08-  .30-    190115 L01  .19-  .35-    
190107 F51  .11-  .24-    190109 I52  .97+  .91+    190115 L01  .97-  1.1+    
190107 F51  .09-  .23-    190109 I52  .52-  .05-    190115 G40  .54+  .06-    
190107 F51  .04-  .19-    190109 I52  .22+  .35-    190115 G40  .09-  .46+    
190108 I52  .39-  .04+    190109 I52  .08-  .05+    190115 L27  .34+  .34-    
190108 I52  .29-  .28-    190111 691  .17+  .09+    190116 L27  .55+  .25+    
190108 I52  .28-  .01+    190111 691  .31-  .33+    190116 L27  .10-  .28+    
190108 I52  .42-  .19+    190111 691  .40+  .38-    190117 291  .16-  .76-    
190108 Q62  .52+  .02+    190112 I52  1.2+  1.3+    190117 291  .23-  .37-    
190108 Q62  .26+  .18+    190112 I52  .09-  .64+    190117 291  .05+  .50-    

Ephemerides (geocentric):
Date (UTC) HH   RA              Dec         delta   r     elong  mag " sig PA
---- -- -- --  -------------   -----------  ------ ------ -----  --- ---- ---
2019 01 17 18  08 49 57.983   -12 20 22.44  1.4951 2.3654 144.4 20.7 .157 127
2019 01 17 19  08 49 55.055   -12 20 53.10  1.4952 2.3656 144.4 20.7 .158 127
2019 01 17 20  08 49 52.127   -12 21 23.71  1.4953 2.3658 144.4 20.7 .160 127
2019 01 17 21  08 49 49.198   -12 21 54.27  1.4954 2.3660 144.5 20.7 .161 127
2019 01 17 22  08 49 46.268   -12 22 24.80  1.4955 2.3663 144.5 20.7 .163 127
2019 01 17 23  08 49 43.338   -12 22 55.28  1.4956 2.3665 144.5 20.7 .164 127
2019 01 18 00  08 49 40.406   -12 23 25.73  1.4957 2.3667 144.5 20.7 .166 127
2019 01 18 01  08 49 37.474   -12 23 56.12  1.4958 2.3669 144.5 20.7 .167 127
2019 01 18 02  08 49 34.541   -12 24 26.48  1.4959 2.3671 144.6 20.7 .169 127
2019 01 18 03  08 49 31.607   -12 24 56.80  1.4960 2.3674 144.6 20.7 .170 127
2019 01 18 04  08 49 28.673   -12 25 27.07  1.4960 2.3676 144.6 20.7 .172 127
2019 01 18 05  08 49 25.737   -12 25 57.30  1.4961 2.3678 144.6 20.7 .173 127
2019 01 18 06  08 49 22.801   -12 26 27.49  1.4962 2.3680 144.6 20.7 .175 127
2019 01 18 07  08 49 19.865   -12 26 57.63  1.4963 2.3682 144.7 20.7 .176 127
2019 01 18 08  08 49 16.927   -12 27 27.74  1.4964 2.3684 144.7 20.7 .178 127
2019 01 18 09  08 49 13.989   -12 27 57.80  1.4965 2.3687 144.7 20.7 .179 127
2019 01 18 10  08 49 11.050   -12 28 27.81  1.4966 2.3689 144.7 20.7 .181 127
2019 01 18 11  08 49 08.110   -12 28 57.79  1.4967 2.3691 144.7 20.7 .182 127
2019 01 18 12  08 49 05.170   -12 29 27.72  1.4968 2.3693 144.8 20.7 .184 127
2019 01 18 13  08 49 02.228   -12 29 57.61  1.4969 2.3695 144.8 20.7 .185 128
2019 01 18 14  08 48 59.286   -12 30 27.46  1.4970 2.3697 144.8 20.7 .187 128
2019 01 18 15  08 48 56.344   -12 30 57.27  1.4971 2.3700 144.8 20.7 .188 128
2019 01 18 16  08 48 53.401   -12 31 27.03  1.4972 2.3702 144.8 20.7 .190 128
2019 01 18 17  08 48 50.457   -12 31 56.75  1.4973 2.3704 144.9 20.7 .191 128
2019 01 18 18  08 48 47.512   -12 32 26.43  1.4974 2.3706 144.9 20.7 .193 128
2019 01 18 19  08 48 44.567   -12 32 56.07  1.4975 2.3708 144.9 20.7 .194 128
2019 01 18 20  08 48 41.621   -12 33 25.66  1.4976 2.3710 144.9 20.7 .196 128
2019 01 18 21  08 48 38.674   -12 33 55.21  1.4977 2.3713 144.9 20.7 .198 128
2019 01 18 22  08 48 35.727   -12 34 24.72  1.4978 2.3715 144.9 20.7 .199 128
2019 01 18 23  08 48 32.779   -12 34 54.19  1.4979 2.3717 145.0 20.7 .201 128
2019 01 19 00  08 48 29.830   -12 35 23.61  1.4980 2.3719 145.0 20.7 .202 128
2019 01 19 01  08 48 26.881   -12 35 52.99  1.4981 2.3721 145.0 20.7 .204 128
2019 01 19 02  08 48 23.931   -12 36 22.33  1.4982 2.3724 145.0 20.7 .205 128
2019 01 19 03  08 48 20.980   -12 36 51.63  1.4983 2.3726 145.0 20.7 .207 128
2019 01 19 04  08 48 18.029   -12 37 20.88  1.4984 2.3728 145.1 20.7 .208 128
2019 01 19 05  08 48 15.077   -12 37 50.09  1.4985 2.3730 145.1 20.7 .210 128
2019 01 19 06  08 48 12.125   -12 38 19.26  1.4986 2.3732 145.1 20.7 .212 128
2019 01 19 07  08 48 09.172   -12 38 48.38  1.4987 2.3734 145.1 20.7 .213 128
2019 01 19 08  08 48 06.218   -12 39 17.47  1.4988 2.3737 145.1 20.7 .215 128
2019 01 19 09  08 48 03.264   -12 39 46.51  1.4989 2.3739 145.2 20.7 .216 128
2019 01 19 10  08 48 00.309   -12 40 15.50  1.4991 2.3741 145.2 20.7 .218 128
2019 01 19 11  08 47 57.354   -12 40 44.46  1.4992 2.3743 145.2 20.7 .219 128
2019 01 19 12  08 47 54.398   -12 41 13.37  1.4993 2.3745 145.2 20.7 .221 128
2019 01 19 13  08 47 51.441   -12 41 42.24  1.4994 2.3748 145.2 20.7 .223 128
2019 01 19 14  08 47 48.484   -12 42 11.06  1.4995 2.3750 145.2 20.7 .224 128
2019 01 19 15  08 47 45.527   -12 42 39.85  1.4996 2.3752 145.3 20.7 .226 128
2019 01 19 16  08 47 42.568   -12 43 08.59  1.4997 2.3754 145.3 20.7 .227 128
2019 01 19 17  08 47 39.610   -12 43 37.29  1.4998 2.3756 145.3 20.7 .229 128